Tracking 28091 objects as of 30-Sep-2023
HD Live streaming from Space Station
objects crossing your sky now

STARLINK-30315

Track STARLINK-30315 now!
10-day predictions
STARLINK-30315 is classified as:


NORAD ID: 57708
Int'l Code: 2023-129L
Perigee: 547.5 km
Apogee: 550.1 km
Inclination: 43.0 °
Period: 95.5 minutes
Semi major axis: 6919 km
RCS: Unknown
Launch date: August 27, 2023
Source: United States (US)
Launch site: AIR FORCE EASTERN TEST RANGE (AFETR)
Your satellite tracking list
Your tracking list is empty




NASA's NSSDC Master Catalog

Two Line Element Set (TLE):
1 57708U 23129L   23273.25001157 -.02155354  00000-0 -15083+0 0  9995
2 57708  42.9994 284.6179 0001870 254.5072  86.0132 15.08206588  6553
Source of the keplerian elements: AFSPC